Location: Campbell River
(50.0170°N, 125.2500°W)
Time: 00:46:06
(UTC-08:00)

Daily predictions for brighter satellites

Satellite Brightness Start Highest point End
(mag) Time Altitude Azimuth Time Altitude Azimuth Time Altitude Azimuth
Cosmos 1943 Rocket 4.3 03:13:00 19° N 03:13:00 19° N 03:14:42 10° NNE
ATLAS 2AS CENTAUR R/B 3.6 03:20:23 51° N 03:20:23 51° N 03:27:11 10° NE
Cosmos 2369 Rocket 4.3 03:23:47 18° N 03:23:47 18° N 03:25:38 10° NNE
ADEOS II 3.7 03:27:53 10° NNE 03:30:50 32° NE 03:30:50 32° NE
Resurs 1-4 Rocket 4.4 03:30:57 10° N 03:32:04 16° N 03:32:04 16° N
CENTAUR R/B 4.3 03:42:55 29° SSE 03:42:55 29° SSE 03:46:35 10° SSE
COSMOS 2455 4.4 03:37:09 22° N 03:39:50 31° NE 03:45:10 10° E
NOSS 3-4 (A) 3.9 03:46:59 59° NNE 03:46:59 59° NNE 03:52:17 10° NE
NOSS 3-4 (C) 3.9 03:47:05 59° NE 03:47:05 59° NE 03:52:23 10° NE
SJ 16-02 4.3 04:07:47 10° ESE 04:09:53 13° E 04:12:01 10° ENE
Cosmos 1697 Rocket 4.1 04:10:38 25° SSE 04:12:52 34° ESE 04:17:53 10° NE
Lacrosse 5 rocket 3.9 04:21:59 13° SE 04:21:59 13° SE 04:22:29 10° SE
MOS 1-B 4.3 04:25:06 10° NNE 04:30:56 85° ESE 04:32:03 60° S
Cosmos 1869 Rocket 4.1 04:26:51 10° N 04:31:13 58° ENE 04:35:36 10° SSE
Cosmos 2150 Rocket 4.4 04:31:44 47° SSE 04:32:52 59° ESE 04:37:56 10° NNE
CZ-2D R/B 4.3 04:32:10 10° NNW 04:32:55 12° NNW 04:32:55 12° NNW
Cosmos 1869 4.5 04:38:40 37° NNE 04:38:40 37° NNE 04:41:09 10° NNE
CZ-4B R/B 3.9 04:32:27 10° NNE 04:37:45 51° E 04:43:06 10° S
EXPRESS MD2 4.0 04:40:47 52° SE 04:40:47 52° SE 04:45:32 10° ESE
Cosmos 2098 Rocket 3.9 04:40:17 62° W 04:40:38 64° WNW 04:47:36 10° N
Cosmos 858 Rocket 4.3 04:42:02 80° WSW 04:42:18 84° WNW 04:47:38 10° NNE
Meteor 1-27 4.5 04:43:24 52° NW 04:43:24 52° NW 04:48:30 10° N
Okean O Rocket 1.8 04:41:50 10° NNE 04:46:17 70° ESE 04:47:11 53° SSE
CZ-4B DEB 4.3 04:47:14 10° NNE 04:52:45 76° ESE 04:56:55 18° S
Cosmos 1934 Rocket 4.4 04:48:14 10° S 04:54:31 67° E 05:00:51 10° NNE
Cosmos 158 Rocket 3.8 04:50:56 17° NNW 04:54:49 90° WSW 04:59:57 10° SSE
Cosmos 1943 Rocket 4.2 04:54:30 13° NNW 04:54:50 13° NNW 04:57:21 10° N
Cosmos 2263 Rocket 3.7 04:50:50 10° NNW 04:56:02 36° NE 05:01:14 10° ESE
Genesis I 3.2 04:58:19 80° NE 04:58:19 80° NE 05:02:08 10° NE
Cosmos 1048 Rocket 4.2 04:52:58 10° NNW 04:58:09 68° ENE 05:03:15 10° SSE
Cosmos 2123 Rocket 4.0 04:52:14 10° N 04:58:29 81° E 05:04:45 10° SSE
CZ-4B R/B 4.2 04:59:55 10° N 05:01:43 26° N 05:01:43 26° N
Cosmos 2278 3.6 05:02:16 44° SW 05:04:06 75° WNW 05:09:51 10° NNE
SKYMED 2 4.2 05:02:09 10° SSE 05:06:23 56° ENE 05:10:39 10° N
Cosmos 1898 Rocket 3.7 05:06:27 47° WNW 05:06:54 48° WNW 05:12:03 10° NNE
Cosmos 2369 Rocket 4.5 05:06:00 10° NNW 05:06:59 10° NNW 05:07:58 10° N
Cosmos 1862 3.5 05:03:57 10° NNW 05:08:42 56° SSW 05:11:55 10° S
Cosmos 1937 Rocket 3.5 05:08:33 48° WSW 05:09:39 59° WNW 05:14:54 10° NNE
PAYLOAD B 4.1 05:05:24 10° NNE 05:10:55 79° WNW 05:15:09 18° SSW
NOSS 2-2 (E) 4.4 05:11:24 35° NW 05:11:49 36° NNW 05:16:37 10° NE
USA 116 4.2 05:07:12 10° SSE 05:11:50 86° WSW 05:17:01 10° NNW
ATLAS 2AS CENTAUR R/B 4.2 05:07:48 21° NW 05:12:00 32° N 05:19:03 10° NE
ADEOS II 3.2 05:08:05 10° N 05:11:47 27° NW 05:11:47 27° NW
NOSS 2-2 (D) 4.3 05:12:16 37° NW 05:12:36 38° NNW 05:17:20 10° NE
Cosmos 1933 4.1 05:10:02 10° S 05:14:00 52° E 05:17:57 10° NNE
RESURS DK-1 4.0 05:15:49 21° NNW 05:15:49 21° NNW 05:18:22 10° N
Cosmos 1821 Rocket 3.9 05:09:48 11° SSW 05:15:41 70° WNW 05:21:58 10° N
Cosmos 2227 4.1 05:10:21 10° NNW 05:16:02 88° ENE 05:21:40 10° SSE
Cosmos 1125 Rocket 4.3 05:14:01 10° S 05:19:01 51° ESE 05:24:04 10° NNE
Cosmos 990 Rocket 4.2 05:21:24 38° WSW 05:22:54 49° WNW 05:28:01 10° NNE
Landsat 4 4.5 05:19:56 10° SSE 05:23:33 52° ENE 05:27:11 10° N
CZ-4B R/B 4.0 05:20:18 10° N 05:24:46 67° WNW 05:27:30 22° SSW
IRS-1C Rocket 4.0 05:19:38 10° NNE 05:24:58 86° WNW 05:30:15 10° SSW
Meteor 2-10 Rocket 3.3 05:21:04 14° SSW 05:25:26 70° WNW 05:30:27 10° N
CZ-2C R/B 3.6 05:21:20 10° S 05:26:01 71° WSW 05:30:37 10° NNW
Cosmos 1980 Rocket 2.4 05:20:24 10° SSW 05:26:02 71° ESE 05:31:41 10° NNE
COSMOS 2455 2.7 05:20:19 10° NW 05:26:21 76° WSW 05:32:23 10° SSE
Cosmos 1656 3.8 05:24:22 34° WSW 05:26:25 52° NW 05:31:47 10° NNE
Meteor 1-31 Rocket 2.7 05:23:22 10° N 05:27:09 56° WNW 05:28:07 42° SW
Cosmos 1535 Rocket 4.4 05:21:32 10° SSW 05:27:37 66° WNW 05:33:44 10° N
CENTAUR R/B 4.4 05:30:13 19° SW 05:30:13 19° SW 05:33:46 10° SSW
ERBS 4.0 05:30:25 22° NNW 05:31:19 25° N 05:34:13 10° ENE
Cosmos 2369 4.0 05:29:26 31° WSW 05:31:49 47° NW 05:37:22 10° NNE
USA 229 DEB 4.3 05:26:42 10° NW 05:33:44 59° NE 05:40:56 10° ESE
USA 229 4.3 05:26:49 10° NW 05:33:49 58° NE 05:41:02 10° ESE
Cosmos 1441 Rocket 4.5 05:31:22 10° SSE 05:35:11 44° E 05:39:00 10° NNE
CZ-3 R/B 4.2 05:29:36 16° WSW 05:37:50 22° SSW 05:44:12 10° SSE
NOSS 8 (H) 4.4 05:37:25 38° SW 05:38:38 78° NW 05:42:23 10° NE
Okean-O 3.2 05:36:48 10° NNE 05:41:12 61° ESE 05:45:35 10° S
ATLAS 5 CENTAUR R/B 3.7 05:37:25 10° S 05:41:21 29° ESE 05:45:36 10° ENE
Cosmos 1733 Rocket 3.0 05:37:55 10° N 05:42:19 89° W 05:46:43 10° S
Cosmos 1862 Rocket 4.1 05:43:16 10° S 05:47:34 61° E 05:51:55 10° NNE
SJ 16-02 1.2 05:43:25 10° SSW 05:47:51 79° WNW 05:52:18 10° NNE
MTI 3.6 05:44:46 10° S 05:47:58 76° W 05:51:09 10° NNW
Geosat 3.9 05:45:24 10° SSE 05:50:25 78° WSW 05:55:30 10° NNW
Feng Yun 1-1 Rocket 4.3 05:46:32 10° NNE 05:52:05 83° ESE 05:57:45 10° SSW
COSMO-SKYMED 1 2.7 05:50:17 10° S 05:54:30 50° W 05:58:46 10° NNW
Cosmos 1269 Rocket 4.1 05:50:42 10° NNW 05:55:52 55° WSW 06:01:00 10° S
Cosmos 405 3.2 05:52:58 10° NNW 05:56:25 47° W 05:59:51 10° S
Cosmos 1697 Rocket 3.0 05:52:25 16° WSW 05:56:41 48° NW 06:02:09 10° NNE
Lacrosse 5 rocket 3.2 05:57:42 14° SW 05:57:42 14° SW 05:59:17 10° SSW
Meteor 2-17 Rocket 4.4 05:53:00 10° SSW 05:59:01 66° WNW 06:05:07 10° N
SL-16 R/B 3.3 05:54:10 10° S 05:59:34 48° ESE 06:04:59 10° NE
Cosmos 1437 Rocket 3.9 05:56:11 10° N 06:00:11 48° ENE 06:04:05 10° SSE
Cosmos 494 Rocket 4.0 05:55:08 10° NNW 06:00:18 87° ENE 06:05:26 10° SSE
Meteor 1-26 Rocket 4.4 05:54:51 10° S 06:00:44 81° E 06:06:35 10° NNE
Cosmos 1605 Rocket 3.9 05:55:04 10° SSW 06:01:07 62° WNW 06:07:12 10° N
CZ-2C R/B 2.6 05:59:23 10° NNE 06:04:27 85° ESE 06:09:38 10° SSW
Cosmos 2100 Rocket 4.4 05:59:36 10° S 06:05:41 67° E 06:11:47 10° NNE
NOAA 6 4.0 06:03:55 10° N 06:09:04 66° WNW 06:14:09 10° SSW
BREEZE M DEB (TANK) 1.0 06:09:53 24° WSW 06:11:01 78° S 06:13:32 10° E
Cosmos 1606 3.5 06:08:38 10° S 06:12:22 54° E 06:16:06 10° NNE
Meteor 1-14 Rocket 4.3 06:11:42 10° NNW 06:17:38 66° W 06:23:31 10° S
CZ-4B R/B 4.0 06:13:27 10° N 06:18:06 30° WNW 06:22:48 10° WSW
Cosmos 1484 Rocket 3.8 06:16:49 10° NNE 06:20:43 53° E 06:24:40 10° S
Meteor 1-20 Rocket 4.3 06:14:58 10° NNW 06:20:50 73° W 06:26:35 10° S
PAYLOAD A 4.0 06:16:40 10° N 06:21:16 52° WNW 06:25:59 10° SW
IDEFIX/ARIANE 42P 2.7 06:16:36 10° N 06:21:43 53° WNW 06:26:45 10° SW
Meteor 1-4 Rocket 4.1 06:18:21 10° N 06:21:56 41° ENE 06:25:31 10° SE
Okean O Rocket 3.1 06:19:15 10° NNW 06:22:10 18° WNW 06:24:39 12° W
SMAP 4.4 06:21:29 10° NNE 06:25:58 44° E 06:30:24 10° S
Cosmos 405 Rocket 3.0 06:24:15 10° SSW 06:28:04 47° WNW 06:31:51 10° N
Cosmos 2061 Rocket 4.2 06:24:28 10° S 06:30:39 81° E 06:36:53 10° NNE
Cosmos 1782 Rocket 3.7 06:29:41 10° N 06:34:05 81° E 06:38:25 10° SSE
Cosmos 2278 Rocket 4.3 06:29:53 10° NNW 06:34:19 23° NE 06:38:43 10° E
Cosmos 1802 Rocket 4.2 06:28:47 10° S 06:35:11 85° E 06:41:33 10° N
Cosmos 2173 Rocket 4.0 06:29:29 10° S 06:35:41 83° W 06:41:52 10° N
Cosmos 1459 Rocket 4.0 06:29:26 10° S 06:35:42 82° W 06:42:07 10° N
Cosmos 2016 Rocket 4.4 06:29:41 10° S 06:35:59 75° E 06:42:22 10° NNE
Aureole 3 3.5 06:33:23 10° NNW 06:36:01 27° W 06:38:37 10° SSW
Sich 1 Rocket 3.5 06:33:36 10° NNW 06:38:00 72° W 06:42:22 10° S
Cosmos 2263 Rocket 2.4 06:34:43 10° NW 06:40:10 50° WSW 06:45:37 10° S
Cosmos 2251 Rocket 3.5 06:35:54 10° NNW 06:41:10 72° WSW 06:46:27 10° SSE
Thor Agena Rocket 3.6 06:36:09 10° SSE 06:41:25 81° WSW 06:46:41 10° NNW
EO 1 Del DPAF 4.4 06:45:27 10° SSW 06:48:35 24° W 06:51:45 10° NW
Iridium 2 3.8 06:44:58 10° S 06:48:49 88° E 06:52:42 10° N
Cosmos 1633 3.4 06:47:10 10° NNW 06:50:21 29° W 06:53:32 10° SSW
